FW3572 Weather Reports


Display with metric or nautical units.
time (UTC)temp
F
wind
direction
speed
MPH
gust
MPH
rain 1hr
in
rain 24hr
in
rain mn
in
humidity
%
barometer
mb
20260509144549 86 202 3.0 12.0 0.00 0.00 0.00 100 1015.9
20260509144047 85 194 5.0 12.0 0.00 0.00 0.00 100 1015.8
20260509143547 85 225 4.0 11.0 0.00 0.00 0.00 100 1015.8
20260509143050 85 207 4.0 12.0 0.00 0.00 0.00 100 1015.8
20260509142544 85 231 5.0 12.0 0.00 0.00 0.00 100 1015.8
20260509142043 84 246 3.0 9.0 0.00 0.00 0.00 100 1015.8
20260509141544 84 240 3.0 14.0 0.00 0.00 0.00 100 1015.7
20260509141040 83 211 4.0 14.0 0.00 0.00 0.00 100 1015.8
20260509140539 83 239 4.0 10.0 0.00 0.00 0.00 100 1015.9
20260509140043 83 202 2.0 10.0 0.00 0.00 0.00 100 1016.0
20260509135537 82 218 4.0 8.0 0.00 0.00 0.00 100 1016.1
20260509135037 82 252 3.0 7.0 0.00 0.00 0.00 100 1016.1
20260509134545 81 192 2.0 9.0 0.00 0.00 0.00 100 1016.1
20260509134034 81 224 3.0 9.0 0.00 0.00 0.00 100 1016.2
20260509133534 81 205 3.0 9.0 0.00 0.00 0.00 100 1016.2
20260509133033 80 254 4.0 8.0 0.00 0.00 0.00 100 1016.2
20260509132532 80 232 1.0 7.0 0.00 0.00 0.00 100 1016.1
20260509132031 80 234 3.0 9.0 0.00 0.00 0.00 100 1016.0
20260509131533 79 233 2.0 8.0 0.00 0.00 0.00 100 1016.1
20260509131030 79 232 3.0 8.0 0.00 0.00 0.00 100 1015.9
20260509130529 79 207 1.0 8.0 0.00 0.00 0.00 100 1015.8
20260509130029 79 225 2.0 10.0 0.00 0.00 0.00 100 1015.8
20260509125528 78 235 3.0 10.0 0.00 0.00 0.00 100 1015.7
20260509125028 78 209 2.0 8.0 0.00 0.00 0.00 100 1015.7
20260509124527 77 240 3.0 8.0 0.00 0.00 0.00 100 1015.6
20260509124029 77 244 3.0 8.0 0.00 0.00 0.00 100 1015.7
20260509123527 77 215 2.0 8.0 0.00 0.00 0.00 100 1015.6
20260509123026 77 204 1.0 8.0 0.00 0.00 0.00 100 1015.4
20260509122527 76 237 3.0 8.0 0.00 0.00 0.00 100 1015.5
20260509122028 76 200 2.0 6.0 0.00 0.00 0.00 100 1015.3
20260509121529 76 192 3.0 6.0 0.00 0.00 0.00 100 1015.3
20260509121026 76 184 2.0 7.0 0.00 0.00 0.00 100 1015.3
20260509120526 76 234 3.0 7.0 0.00 0.00 0.00 100 1015.3
20260509120027 76 172 3.0 5.0 0.00 0.00 0.00 100 1015.3
20260509115526 76 223 3.0 7.0 0.00 0.00 0.00 100 1015.2
20260509115025 76 167 3.0 7.0 0.00 0.00 0.00 100 1015.2
20260509114525 76 209 0.0 5.0 0.00 0.00 0.00 100 1015.2
20260509114032 75 236 1.0 5.0 0.00 0.00 0.00 100 1015.2
20260509113526 75 230 1.0 4.0 0.00 0.00 0.00 100 1015.1
20260509113027 75 241 0.0 3.0 0.00 0.00 0.00 100 1015.1
20260509112525 75 206 0.0 0.0 0.00 0.00 0.00 100 1014.9
20260509112025 75 204 0.0 0.0 0.00 0.00 0.00 100 1015.1
20260509111525 75 204 0.0 0.0 0.00 0.00 0.00 100 1015.1
20260509111025 75 191 0.0 0.0 0.00 0.00 0.00 100 1015.0
20260509110525 75 191 0.0 0.0 0.00 0.00 0.00 100 1015.0
20260509110024 75 191 0.0 0.0 0.00 0.00 0.00 100 1014.9
20260509105529 75 190 0.0 0.0 0.00 0.00 0.00 100 1015.0
20260509105024 75 190 0.0 0.0 0.00 0.00 0.00 100 1014.9
20260509104524 75 169 0.0 0.0 0.00 0.00 0.00 100 1014.8
20260509104023 75 169 0.0 0.0 0.00 0.00 0.00 100 1014.8
20260509103524 75 169 0.0 0.0 0.00 0.00 0.00 100 1014.8
20260509103026 75 169 0.0 0.0 0.00 0.00 0.00 100 1014.8
20260509102525 75 169 0.0 0.0 0.00 0.00 0.00 100 1014.7
20260509102025 75 169 0.0 0.0 0.00 0.00 0.00 100 1014.7
20260509101524 75 169 0.0 0.0 0.00 0.00 0.00 100 1014.7
20260509101023 75 169 0.0 0.0 0.00 0.00 0.00 100 1014.7
20260509100522 75 169 0.0 0.0 0.00 0.00 0.00 100 1014.6
20260509100023 75 169 0.0 0.0 0.00 0.00 0.00 100 1014.6
20260509095523 75 169 0.0 0.0 0.00 0.00 0.00 100 1014.5
20260509095021 75 175 0.0 0.0 0.00 0.00 0.00 100 1014.4
20260509094522 75 175 0.0 1.0 0.00 0.00 0.00 100 1014.5
20260509094022 75 174 0.0 8.0 0.00 0.00 0.00 100 1014.5
20260509093524 75 173 1.0 8.0 0.00 0.00 0.00 100 1014.5
20260509093021 75 146 2.0 6.0 0.00 0.00 0.00 100 1014.6
20260509092521 75 162 1.0 6.0 0.00 0.00 0.00 100 1014.5
20260509092020 76 177 1.0 4.0 0.00 0.00 0.00 100 1014.6
20260509091528 76 180 1.0 4.0 0.00 0.00 0.00 100 1014.6
20260509091019 75 226 0.0 3.0 0.00 0.00 0.00 100 1014.7
20260509090518 75 227 0.0 3.0 0.00 0.00 0.00 100 1014.7
20260509090018 75 230 0.0 1.0 0.00 0.00 0.00 100 1014.7
20260509085517 75 230 0.0 0.0 0.00 0.00 0.00 100 1014.8
20260509085017 75 230 0.0 0.0 0.00 0.00 0.00 100 1014.9
20260509084524 75 230 0.0 2.0 0.00 0.00 0.00 100 1014.9
20260509084016 75 230 0.0 2.0 0.00 0.00 0.00 100 1015.0
20260509083520 75 229 0.0 3.0 0.00 0.00 0.00 100 1015.0
20260509083017 75 229 0.0 3.0 0.00 0.00 0.00 100 1015.0
20260509082519 75 219 0.0 2.0 0.00 0.00 0.00 100 1014.9
20260509082017 75 219 0.0 2.0 0.00 0.00 0.00 100 1015.0
20260509081517 75 219 0.0 0.0 0.00 0.00 0.00 100 1015.0
20260509081017 75 219 0.0 0.0 0.00 0.00 0.00 100 1014.9
20260509080515 75 219 0.0 0.0 0.00 0.00 0.00 100 1014.9
20260509080023 75 219 0.0 0.0 0.00 0.00 0.00 100 1014.9
20260509075516 75 219 0.0 0.0 0.00 0.00 0.00 100 1014.8
20260509075020 74 219 0.0 0.0 0.00 0.00 0.00 100 1014.9
20260509074516 74 219 0.0 0.0 0.00 0.00 0.00 100 1014.9
20260509074014 75 219 0.0 0.0 0.00 0.00 0.00 100 1014.9
20260509073514 75 219 0.0 2.0 0.00 0.00 0.00 100 1014.8
20260509073035 75 219 0.0 2.0 0.00 0.00 0.00 100 1014.8
20260509072515 75 219 0.0 0.0 0.00 0.00 0.00 100 1014.8
20260509072014 75 219 0.0 0.0 0.00 0.00 0.00 100 1014.8
20260509071514 75 219 0.0 1.0 0.00 0.00 0.00 100 1014.8
20260509071013 75 219 0.0 1.0 0.00 0.00 0.00 100 1014.8
20260509070512 75 219 0.0 3.0 0.00 0.00 0.00 100 1014.8
20260509070019 75 219 0.0 3.0 0.00 0.00 0.00 100 1015.0
20260509065515 75 221 0.0 2.0 0.00 0.00 0.00 100 1014.9
20260509065013 75 221 0.0 2.0 0.00 0.00 0.00 100 1014.9
20260509064511 75 229 0.0 4.0 0.00 0.00 0.00 100 1014.9
20260509064012 75 229 1.0 4.0 0.00 0.00 0.00 100 1014.9
20260509063510 75 234 0.0 3.0 0.00 0.00 0.00 100 1015.1
20260509063010 75 232 0.0 0.0 0.00 0.00 0.00 100 1015.0
20260509062513 75 232 0.0 0.0 0.00 0.00 0.00 100 1015.0
20260509062009 75 232 0.0 2.0 0.00 0.00 0.00 100 1015.1
20260509061509 75 232 0.0 3.0 0.00 0.00 0.00 100 1015.2
20260509061011 75 232 1.0 4.0 0.00 0.00 0.00 100 1015.3
20260509060509 75 232 1.0 5.0 0.00 0.00 0.00 100 1015.2
20260509060015 75 227 0.0 4.0 0.00 0.00 0.00 100 1015.3
20260509055508 75 227 0.0 4.0 0.00 0.00 0.00 100 1015.4
20260509055009 75 224 1.0 4.0 0.00 0.00 0.00 100 1015.4
20260509054506 75 231 0.0 9.0 0.00 0.00 0.00 100 1015.5
20260509054005 75 231 2.0 9.0 0.00 0.00 0.00 100 1015.5
20260509053505 76 229 2.0 9.0 0.00 0.00 0.00 100 1015.5
20260509053010 76 232 4.0 9.0 0.00 0.00 0.00 100 1015.6
20260509052503 76 269 1.0 9.0 0.00 0.00 0.00 100 1015.5
20260509052001 77 254 3.0 7.0 0.00 0.00 0.00 100 1015.7
20260509051501 77 240 2.0 8.0 0.00 0.00 0.00 100 1015.6
20260509051103 77 234 4.0 8.0 0.00 0.00 0.00 100 1015.7
20260509050559 77 238 1.0 5.0 0.00 0.00 0.00 100 1015.7
20260509050058 77 236 0.0 4.0 0.00 0.00 0.00 100 1015.7
20260509045557 77 232 1.0 4.0 0.00 0.00 0.00 100 1015.8
20260509045057 78 189 1.0 5.0 0.00 0.00 0.00 100 1015.7
20260509044557 78 220 1.0 5.0 0.00 0.00 0.00 100 1015.8
20260509044058 78 250 2.0 5.0 0.00 0.00 0.00 100 1015.7
20260509043554 78 223 0.0 7.0 0.00 0.00 0.00 100 1015.7
20260509043058 79 146 0.0 10.0 0.00 0.00 0.00 100 1015.6
20260509042555 79 163 4.0 10.0 0.00 0.00 0.00 100 1015.6
20260509042055 79 157 5.0 10.0 0.00 0.00 0.00 100 1015.4
20260509041554 79 172 5.0 10.0 0.00 0.00 0.00 100 1015.5
20260509041052 79 210 5.0 10.0 0.00 0.00 0.00 100 1015.5
20260509040557 79 180 6.0 12.0 0.00 0.00 0.00 100 1015.5
20260509035550 79 157 4.0 10.0 0.00 0.00 0.00 100 1015.6
20260509035049 79 149 5.0 11.0 0.00 0.00 0.00 100 1015.7
20260509034548 79 161 5.0 9.0 0.00 0.00 0.00 100 1015.7
20260509034048 79 123 4.0 8.0 0.00 0.00 0.00 100 1015.6
20260509033548 79 148 2.0 8.0 0.00 0.00 0.00 100 1015.7
20260509033050 79 171 2.0 10.0 0.00 0.00 0.00 100 1015.8
20260509032548 79 172 4.0 11.0 0.00 0.00 0.00 100 1015.9
20260509032048 79 151 4.0 12.0 0.00 0.00 0.00 100 1015.7
20260509031547 79 153 4.0 9.0 0.00 0.00 0.00 100 1015.8
20260509031047 79 161 3.0 10.0 0.00 0.00 0.00 100 1015.8
20260509030546 79 160 5.0 10.0 0.00 0.00 0.00 100 1015.8
20260509030047 79 157 4.0 9.0 0.00 0.00 0.00 100 1015.8
20260509025547 79 153 4.0 9.0 0.00 0.00 0.00 100 1015.7
20260509025046 79 142 5.0 10.0 0.00 0.00 0.00 100 1015.8
20260509024546 79 179 4.0 10.0 0.00 0.00 0.00 100 1015.8
20260509024046 79 165 2.0 9.0 0.00 0.00 0.00 100 1015.8
20260509023546 79 141 2.0 9.0 0.00 0.00 0.00 100 1015.7
20260509023047 79 153 3.0 9.0 0.00 0.00 0.00 100 1015.7
20260509022545 79 136 4.0 9.0 0.00 0.00 0.00 100 1015.7
20260509022048 79 161 4.0 9.0 0.00 0.00 0.00 100 1015.7
20260509021546 79 153 4.0 9.0 0.00 0.00 0.00 100 1015.6
20260509021044 79 112 4.0 10.0 0.00 0.00 0.00 100 1015.6
20260509020544 79 169 5.0 10.0 0.00 0.00 0.00 100 1015.5
20260509020045 79 150 4.0 8.0 0.00 0.00 0.00 100 1015.5
20260509015556 79 142 3.0 8.0 0.00 0.00 0.00 100 1015.5
20260509015045 79 136 2.0 10.0 0.00 0.00 0.00 100 1015.4
20260509014544 79 161 5.0 10.0 0.00 0.00 0.00 100 1015.3
20260509014047 79 158 4.0 10.0 0.00 0.00 0.00 100 1015.2
20260509013544 79 138 3.0 9.0 0.00 0.00 0.00 100 1015.3
20260509013057 79 142 4.0 11.0 0.00 0.00 0.00 100 1015.3
20260509012543 79 133 6.0 10.0 0.00 0.00 0.00 100 1015.2
20260509012042 79 117 3.0 9.0 0.00 0.00 0.00 100 1015.3
20260509011543 79 150 5.0 9.0 0.00 0.00 0.00 100 1015.3
20260509011043 79 169 4.0 8.0 0.00 0.00 0.00 100 1015.3
20260509010542 79 178 3.0 10.0 0.00 0.00 0.00 100 1015.2
20260509010043 79 157 5.0 10.0 0.00 0.00 0.00 100 1015.3
20260509005541 80 146 3.0 9.0 0.00 0.00 0.00 100 1015.2
20260509005042 79 132 4.0 9.0 0.00 0.00 0.00 100 1015.1
20260509004604 80 141 5.0 10.0 0.00 0.00 0.00 100 1015.0
20260509004041 79 132 5.0 10.0 0.00 0.00 0.00 100 1015.0
20260509003541 80 161 3.0 9.0 0.00 0.00 0.00 100 1015.1
20260509003045 80 148 3.0 8.0 0.00 0.00 0.00 100 1014.9
20260509002543 80 144 3.0 10.0 0.00 0.00 0.00 100 1014.8
20260509002040 80 157 3.0 10.0 0.00 0.00 0.00 100 1014.7
20260509001543 80 132 4.0 10.0 0.00 0.00 0.00 100 1014.7
20260509001046 80 161 4.0 10.0 0.00 0.00 0.00 100 1014.7
20260509000542 80 134 5.0 10.0 0.00 0.00 0.00 100 1014.6
20260509000040 80 121 2.0 10.0 0.00 0.00 0.00 100 1014.6
20260508235541 80 161 5.0 10.0 0.00 0.00 0.00 100 1014.5
20260508235040 80 150 2.0 10.0 0.00 0.00 0.00 100 1014.3
20260508234545 80 148 3.0 10.0 0.00 0.00 0.00 100 1014.2
20260508234040 80 183 5.0 10.0 0.00 0.00 0.00 100 1014.2
20260508233540 80 130 3.0 9.0 0.00 0.00 0.00 100 1014.2
20260508233039 80 163 4.0 9.0 0.00 0.00 0.00 100 1014.2
20260508232541 80 146 5.0 9.0 0.00 0.00 0.00 100 1014.2
20260508232040 80 153 3.0 11.0 0.00 0.00 0.00 100 1014.1
20260508231538 80 136 4.0 11.0 0.00 0.00 0.00 100 1014.1
20260508231038 80 150 5.0 11.0 0.00 0.00 0.00 100 1014.1
20260508230539 80 146 5.0 11.0 0.00 0.00 0.00 100 1013.9
20260508230051 80 136 6.0 10.0 0.00 0.00 0.00 100 1013.9
20260508225538 81 157 4.0 10.0 0.00 0.00 0.00 100 1013.9
20260508225041 80 156 4.0 10.0 0.00 0.00 0.00 100 1013.9
20260508224537 81 142 4.0 14.0 0.00 0.00 0.00 100 1013.9
20260508224037 81 130 6.0 14.0 0.00 0.00 0.00 100 1013.7
20260508223536 80 150 8.0 14.0 0.00 0.00 0.00 100 1013.8
20260508223037 81 113 4.0 12.0 0.00 0.00 0.00 100 1013.7
20260508222540 81 136 4.0 12.0 0.00 0.00 0.00 100 1013.6
20260508222037 81 132 5.0 9.0 0.00 0.00 0.00 100 1013.6
20260508221537 81 113 4.0 10.0 0.00 0.00 0.00 100 1013.9
20260508221037 81 126 5.0 11.0 0.00 0.00 0.00 100 1013.9
20260508220535 81 165 5.0 11.0 0.00 0.00 0.00 100 1013.9
20260508220033 81 128 6.0 11.0 0.00 0.00 0.00 100 1013.9
20260508215537 81 150 5.0 11.0 0.00 0.00 0.00 100 1014.0
20260508215034 82 166 5.0 11.0 0.00 0.00 0.00 100 1014.0
20260508214534 82 132 3.0 13.0 0.00 0.00 0.00 100 1013.9
20260508214033 81 134 5.0 13.0 0.00 0.00 0.00 100 1014.1
20260508213533 82 152 4.0 10.0 0.00 0.00 0.00 100 1014.0
20260508213033 82 157 5.0 11.0 0.00 0.00 0.00 100 1014.0
20260508212533 82 153 3.0 12.0 0.00 0.00 0.00 100 1013.9
20260508212032 82 142 4.0 11.0 0.00 0.00 0.00 100 1014.1
20260508211535 82 138 3.0 10.0 0.00 0.00 0.00 100 1014.0
20260508211031 82 146 5.0 13.0 0.00 0.00 0.00 100 1014.1
20260508210533 82 130 4.0 13.0 0.00 0.00 0.00 100 1014.1
20260508210035 83 162 4.0 10.0 0.00 0.00 0.00 100 1014.1
20260508205530 82 140 3.0 11.0 0.00 0.00 0.00 100 1014.3
20260508205031 82 103 5.0 13.0 0.00 0.00 0.00 100 1014.5
20260508204530 82 107 7.0 13.0 0.00 0.00 0.00 100 1014.5
20260508204028 82 156 5.0 12.0 0.00 0.00 0.00 100 1014.6
20260508203529 83 86 4.0 12.0 0.00 0.00 0.00 100 1014.5
20260508203028 83 134 3.0 10.0 0.00 0.00 0.00 100 1014.5
20260508202528 83 128 3.0 10.0 0.00 0.00 0.00 100 1014.6
20260508202028 82 113 7.0 11.0 0.00 0.00 0.00 100 1014.5
20260508201527 83 148 5.0 13.0 0.00 0.00 0.00 100 1014.6
20260508201026 82 165 6.0 13.0 0.00 0.00 0.00 100 1014.8
20260508200526 82 112 5.0 12.0 0.00 0.00 0.00 100 1014.8
20260508200037 83 178 6.0 15.0 0.00 0.00 0.00 100 1015.0
20260508195525 83 113 6.0 15.0 0.00 0.00 0.00 100 1014.9
20260508195027 82 111 4.0 15.0 0.00 0.00 0.00 100 1015.0
20260508194524 82 146 6.0 15.0 0.00 0.00 0.00 100 1015.1
20260508194023 82 170 6.0 15.0 0.00 0.00 0.00 100 1015.3
20260508193523 84 96 5.0 14.0 0.00 0.00 0.00 100 1015.4
20260508193025 84 49 3.0 11.0 0.00 0.00 0.00 100 1015.4
20260508192524 83 123 4.0 11.0 0.00 0.00 0.00 100 1015.5
20260508192024 83 115 4.0 11.0 0.00 0.00 0.00 100 1015.5
20260508191524 83 159 4.0 12.0 0.00 0.00 0.00 100 1015.6
20260508191022 83 94 6.0 12.0 0.00 0.00 0.00 100 1015.6
20260508190522 83 111 5.0 12.0 0.00 0.00 0.00 100 1015.6
20260508190023 83 132 4.0 12.0 0.00 0.00 0.00 100 1015.7
20260508185524 84 123 4.0 8.0 0.00 0.00 0.00 100 1015.8
20260508185021 84 73 3.0 9.0 0.00 0.00 0.00 100 1016.0
20260508184544 84 27 2.0 9.0 0.00 0.00 0.00 100 1015.9
20260508184021 85 97 2.0 8.0 0.00 0.00 0.00 100 1016.0
20260508183522 84 46 3.0 9.0 0.00 0.00 0.00 100 1016.1
20260508183021 84 123 3.0 10.0 0.00 0.00 0.00 100 1016.0
20260508182521 84 104 5.0 11.0 0.00 0.00 0.00 100 1016.1
20260508182020 84 82 4.0 12.0 0.00 0.00 0.00 100 1016.1
20260508181538 84 112 2.0 10.0 0.00 0.00 0.00 100 1016.2
20260508181019 84 163 4.0 12.0 0.00 0.00 0.00 100 1016.2
20260508180519 84 94 4.0 12.0 0.00 0.00 0.00 100 1016.2
20260508180020 84 88 2.0 12.0 0.00 0.00 0.00 100 1016.2
20260508175519 85 90 3.0 9.0 0.00 0.00 0.00 100 1016.2
20260508175019 85 72 3.0 7.0 0.00 0.00 0.00 100 1016.3
20260508174519 84 26 2.0 8.0 0.00 0.00 0.00 100 1016.4
20260508174019 84 57 4.0 11.0 0.00 0.00 0.00 100 1016.4
20260508173518 85 109 4.0 11.0 0.00 0.00 0.00 100 1016.4
20260508173018 86 117 3.0 10.0 0.00 0.00 0.00 100 1016.4
20260508172517 86 25 3.0 9.0 0.00 0.00 0.00 100 1016.3
20260508172118 86 12 3.0 10.0 0.00 0.00 0.00 100 1016.4
20260508171517 85 31 2.0 10.0 0.00 0.00 0.00 100 1016.5
20260508171016 85 71 2.0 8.0 0.00 0.00 0.00 100 1016.5
20260508170518 85 149 3.0 8.0 0.00 0.00 0.00 100 1016.7
20260508170017 86 128 3.0 11.0 0.00 0.00 0.00 100 1016.8
20260508165517 85 355 4.0 11.0 0.00 0.00 0.00 100 1016.8
20260508165016 85 49 3.0 10.0 0.00 0.00 0.00 100 1016.9
20260508164516 86 128 3.0 10.0 0.00 0.00 0.00 100 1016.9
20260508164015 86 345 2.0 11.0 0.00 0.00 0.00 100 1016.8
20260508163513 86 36 3.0 11.0 0.00 0.00 0.00 100 1016.9
20260508163012 86 110 2.0 9.0 0.00 0.00 0.00 100 1016.9
20260508162512 85 157 2.0 11.0 0.00 0.00 0.00 100 1016.9
20260508162015 86 5 4.0 11.0 0.00 0.00 0.00 100 1017.1
20260508161512 85 337 2.0 12.0 0.00 0.00 0.00 100 1017.2
20260508161011 85 37 3.0 12.0 0.00 0.00 0.00 100 1017.2
20260508160510 84 232 3.0 12.0 0.00 0.00 0.00 100 1017.3
20260508160032 85 9 2.0 9.0 0.00 0.00 0.00 100 1017.3
20260508155510 85 26 2.0 9.0 0.00 0.00 0.00 100 1017.3
20260508155009 84 9 3.0 9.0 0.00 0.00 0.00 100 1017.3
20260508154512 85 116 1.0 7.0 0.00 0.00 0.00 100 1017.3
20260508154009 85 10 2.0 8.0 0.00 0.00 0.00 100 1017.4
20260508153510 84 34 2.0 8.0 0.00 0.00 0.00 100 1017.5
20260508153009 86 128 2.0 10.0 0.00 0.00 0.00 100 1017.4
20260508152508 86 350 2.0 10.0 0.00 0.00 0.00 100 1017.5
20260508152007 85 31 2.0 8.0 0.00 0.00 0.00 100 1017.4
20260508151511 83 73 1.0 8.0 0.00 0.00 0.00 100 1017.5
20260508151007 84 349 3.0 8.0 0.00 0.00 0.00 100 1017.5
20260508150505 83 355 1.0 8.0 0.00 0.00 0.00 100 1017.5
20260508150011 84 355 2.0 8.0 0.00 0.00 0.00 100 1017.6
20260508145505 85 322 0.0 6.0 0.00 0.00 0.00 100 1017.6